User: anonymous   Login
Location: Unspecified
(0.0000°N, 0.0000°E)
Time: 18:56:17
(UTC+00:00)
Language:

S80/T - Orbit

View from above orbital plane
View from above orbital plane
View from above satellite
View from above satellite

Ground track
Ground track

The orbit data is extracted from the following two-line orbital elements,

1 22078U 92052C   17084.55833935 -.00000038 +00000-0 +93920-4 0  9997
2 22078 066.0834 132.3170 0006009 353.8228 006.2716 12.86786620156731
Epoch (UTC): 25 March 2017 13:24:00
Eccentricity: 0.0006009
inclination: 66.0834°
perigee height: 1309 km
apogee height: 1319 km
right ascension of ascending node: 132.3170°
argument of perigee: 353.8228°
revolutions per day: 12.86786620
mean anomaly at epoch: 6.2716°
orbit number at epoch: 15673

The dashed part of the orbit path shows where the satellite is in the earth's shadow,  

DLR